Home > Weather > Ica > Past weeks

Flag for Peru Past Weather in Ica, Ica, Peru — Yesterday and Last 2 Weeks

Now
68 °F

Sunny.


Feels Like: 68 °F
Forecast: N/A
Wind: 20 mph from Southwest

Location: Pisco Airport

Current Time: Jun 25, 2016 at 6:10:30 PM

Latest Report: Jun 25, 2016 at 5:00 PM


Visibility: 10 mi

Pressure: 29.89 "Hg

Humidity: 78%

Dew Point: 61 °F

Location of IcaLocation

Past Weather in Ica — Graph

°F

Ica Temperature Yesterday

Maximum temperature yesterday: 73 °F (at 2:00 PM)
Minimum temperature yesterday: 59 °F (at 10:00 PM)
Average temperature yesterday: 65 °F

High & Low Weather Summary for the Past Weeks

 TemperatureHumidityPressure
High73 °F (Jun 24, 2:00 PM)94% (Jun 10, 5:00 PM)30.45 "Hg (Jun 10, 5:00 PM)
Low55 °F (Jun 20, 3:00 AM)42% (Jun 11, 5:00 PM)29.86 "Hg (Jun 25, 2:00 PM)
Average64 °F84%29.99 "Hg
* Reported Jun 10 4:00 PM — Jun 25 4:00 PM, Ica, Weather by CustomWeather, © 2016

Note: Actual official high and low records may vary slightly from our data, if they occured in-between our weather recording intervals... More about our weather records

Advertising

Ica Weather History for the Previous 24 Hours

Scroll right to see more
 ConditionsComfort  
Time TempWeatherWind HumidityBarometerVisibility
4:00 PM
Sat, Jun 25
70 °FSunny.22 mph69%29.86 "Hg10 mi
3:00 PM72 °FClear.24 mph65%29.86 "Hg5 mi
2:00 PM72 °FClear.26 mph65%29.86 "Hg5 mi
1:00 PM72 °FDuststorm.23 mph69%29.92 "Hg5 mi
12:00 PM73 °FSunny.17 mph57%29.95 "Hg10 mi
11:00 AM70 °FClear.9 mph64%29.98 "Hg5 mi
10:00 AM66 °FClear.9 mph73%29.98 "Hg5 mi
9:00 AM64 °FClear.5 mph73%29.98 "Hg5 mi
8:00 AM63 °FFog.5 mph73%29.98 "Hg3 mi
7:00 AM55 °FPartly sunny.2 mph82%29.95 "Hg4 mi
6:00 AM57 °FPassing clouds.6 mph77%29.95 "Hg4 mi
5:00 AM59 °FPassing clouds.5 mph82%29.92 "Hg4 mi
4:00 AM55 °FPassing clouds.6 mph88%29.92 "Hg5 mi
3:00 AM55 °FClear.6 mph88%29.92 "Hg5 mi
2:00 AM61 °FClear.3 mph77%29.92 "Hg5 mi
1:00 AM61 °FClear.5 mph77%29.92 "Hg5 mi
12:00 AM61 °FPassing clouds.5 mph77%29.95 "Hg5 mi
11:00 PM
Fri, Jun 24
59 °FPassing clouds.No wind88%29.95 "Hg5 mi
10:00 PM59 °FClear.6 mph88%29.95 "Hg5 mi
9:00 PM64 °FClear.6 mph68%29.95 "Hg5 mi
8:00 PM66 °FClear.9 mph68%29.95 "Hg5 mi
7:00 PM66 °FClear.15 mph78%29.95 "Hg5 mi
6:00 PM68 °FClear.14 mph73%29.98 "Hg5 mi
Weather by CustomWeather, © 2016

See weather overviewHow to use our weather pages